Regional Weather Roundup
Issued by NWS

Home | Current Version | Previous Version | Text Only | Print | Product List | Glossary Off
Versions: 1 2 3 4 5 6 7 8 9 10 11 12 13 14 15 16 17 18 19 20 21 22 23 24 25 26 27 28 29 30 31 32 33 34 35 36 37 38 39 40 41 42 43 44 45 46 47 48 49 50

000
ASUS43 KDTX 310910
RWRMI
MICHIGAN HOURLY REGIONAL WEATHER ROUNDUP
NATIONAL WEATHER SERVICE DETROIT/PONTIAC MI
500 AM EDT WED AUG 31 2016

NOTE: "FAIR" INDICATES FEW OR NO CLOUDS BELOW 12,000 FEET WITH NO
SIGNIFICANT WEATHER AND/OR OBSTRUCTION TO VISIBILITY.

MIZ047>049-052>055-059>063-066>070-074>076-081>083-311000-
SOUTHEAST LOWER MICHIGAN

CITY           SKY/WX    TMP DP  RH WIND       PRES   REMARKS
ADRIAN         CLOUDY    69  69 100 CALM      30.02S
ALMA           CLOUDY    70  70 100 N8        30.02S FOG
ANN ARBOR      CLOUDY    71  69  93 NW5       30.00F
BAD AXE        MOCLDY    65  63  95 CALM      30.01S
CARO           CLOUDY    69  68  96 N6        30.00R
DETROIT CITY   CLOUDY    73  69  87 NW3       29.99F
DETROIT        CLOUDY    72  68  87 W3        30.00S
FLINT          CLOUDY    70  68  93 W5        30.00F
GROSSE ILE     CLOUDY    71  68  91 CALM      29.99S
HILLSDALE      CLOUDY    68  67  96 W6        30.02S FOG
HOWELL         CLOUDY    70  69  97 CALM      30.01S FOG

CITY           SKY/WX    TMP DP  RH WIND       PRES   REMARKS
JACKSON        CLOUDY    69  69 100 W3        30.01F
LAMBERTVILLE     N/A     69  68  94 CALM      30.01S FOG
LANSING        CLOUDY    70  68  93 NW9       30.02S
LAPEER         CLOUDY    71  69  93 W5        30.00S
MASON          CLOUDY    68  66  94 NW3       30.01S
MONROE         CLOUDY    69  69 100 CALM      30.00S FOG
MT. CLEMENS    LGT RAIN  72  72 100 W3        29.97F
PONTIAC        HVY RAIN  68  66  93 W8        30.00F FOG
PORT HOPE        N/A     69  59  70 CALM      29.98F
PORT HURON     MOCLDY    68  66  94 CALM      29.99S
TRI CITIES     CLOUDY    69  68  96 N9        30.02R
MIDLAND        MOCLDY    67  65  96 CALM      30.01F
TROY           RAIN      71  67  87 NW3       30.01F
SAGINAW HB     CLOUDY    70  68  94 N9        30.00S
$$
MIZ043>046-050>051-056>058-064>065-071>073-077>080-311000-
SOUTHWEST LOWER MICHIGAN

CITY           SKY/WX    TMP DP  RH WIND       PRES   REMARKS
BATTLE CREEK   CLOUDY    68  68 100 NW5       30.03S
BENTON HARBOR  MOCLDY    72  69  90 CALM      30.01F
BIG RAPIDS     CLOUDY    65  63  91 N5        30.05S
COLDWATER      CLOUDY    69  69 100 CALM      30.02S FOG
FREMONT        CLOUDY    68  68  99 N7        30.03S
HOLLAND        FOG       69  68  96 CALM      30.01F VSB 1/2
GRAND RAPIDS   CLOUDY    72  69  90 CALM      30.02F FOG
IONIA          FOG       69  69  97 W5        30.02S VSB 1/2
KALAMAZOO      CLOUDY    70  67  90 CALM      30.02F
LUDINGTON      MOCLDY    63  60  91 NE3       30.05S
MARSHALL       CLOUDY    69  68  98 CALM      30.02S
MOUNT PLEASANT PTCLDY    68  66  94 N3        30.03R
MUSKEGON       CLOUDY    73  69  87 NE5       30.02S
SOUTH HAVEN    CLOUDY    71  70  98 CALM      30.01F
$$
MIZ016>042-311000-
NORTHERN LOWER MICHIGAN

CITY           SKY/WX    TMP DP  RH WIND       PRES   REMARKS
ALPENA         CLEAR     57  54  89 W3        30.03S
BEAVER ISLAND  CLEAR     62  56  80 N3        30.07F
BELLAIRE       FOG       54  52  95 CALM      30.07S VSB 3/4
CADILLAC       CLOUDY    62  52  71 N3        30.06F
CHARLEVOIX     CLEAR     64  57  77 N9        30.09S
FRANKFORT      CLEAR     60  55  81 CALM      30.07S
GAYLORD        CLEAR     58  52  80 W3        30.06F
GRAYLING       CLEAR     56  52  85 W3        30.07S
HARBOR SPRINGS CLEAR     56  55  94 N6        30.06S
HOUGHTON LAKE  CLOUDY    63  53  70 N7        30.05F
MANISTEE       PTCLDY    62  55  77 N6        30.06S
OSCODA         CLOUDY    60  58  94 NW7       30.00F
PELLSTON       CLEAR     55  53  93 W3        30.06S
ROGERS CITY    PTCLDY    57  55  91 W6        30.04S
TRAVERSE CITY  CLEAR     65  56  72 N5        30.05F
$$
MIZ007>008-015-311000-
EASTERN UPPER MICHIGAN

CITY           SKY/WX    TMP DP  RH WIND       PRES   REMARKS
KINROSS        CLEAR     54  53  97 NW3       30.05S
MACKINAC ISLAN CLEAR     58  58 100 N7        30.05S
NEWBERRY       CLEAR     56  55  97 W6        30.07F
S. S. MARIE    CLEAR     60  56  86 NW6       30.04S
MUNISING         N/A     54  54 100 S8        30.08S
$$
MIZ004>006-011>014-085-311000-
CENTRAL UPPER MICHIGAN

CITY           SKY/WX    TMP DP  RH WIND       PRES   REMARKS
MANISTIQUE     CLEAR     53  51  92 NW6       30.08S
ESCANABA       CLEAR     52  51  97 NW3       30.10S
MENOMINEE      CLEAR    N/A N/A N/A NW6         N/A
SAWYER-GWINN   CLEAR     47  45  93 CALM      30.11F
$$
MIZ001>003-009>011-084-311000-
WESTERN UPPER MICHIGAN

CITY           SKY/WX    TMP DP  RH WIND       PRES   REMARKS
IRON MOUNTAIN  CLEAR     49  44  83 CALM      30.12S
HOUGHTON       CLOUDY    55  52  89 NW7       30.12S
COPPER HARBOR    N/A     59  57  93 CALM      30.09F
IRONWOOD       FOG       48  48 100 CALM      30.17S VSB 3/4
$$

ABBREVIATIONS USED IN REMARKS
   TC - TEMPERATURE IN CELSIUS
  WCI - WIND CHILL INDEX
   HX - HEAT INDEX
  VSB - VISIBILITY




USA.gov is the U.S. government's official web portal to all federal, state and local government web resources and services.